Lid_Strength_Index
-1 -1 -0 1 7 6 10 9 7 8 8 5 5 6 7 6 8 10 1 -0 -1 -1 -1 -1 -1 -2 -2 -2 -2 -1 -1 -2 -2 -2 -2 -2 -2 -2 -2 -2 -3 -2 -2 -2 -2 -2 -2 -2 -2
-1 0 0 3 8 10 10 8 8 7 6 5 5 5 6 7 4 4 2 -0 -1 -1 -1 -1 -1 -2 -2 -2 -2 -2 -1 -2 -2 -2 -2 -2 -2 -2 -2 -2 -3 -2 -2 -2 -2 -2 -2 -2 -2
0 1 4 6 8 10 10 8 7 6 5 5 6 5 5 6 3 3 0 -0 -1 -1 -1 -1 -1 -1 -2 -2 -2 -2 -2 -2 -2 -2 -2 -2 -2 -2 -2 -2 -3 -2 -2 -2 -2 -2 -2 -2 -2
1 1 3 8 10 8 8 6 6 6 5 5 5 6 4 2 3 1 -0 -1 -0 -1 -1 -1 -1 -2 -2 -2 -2 -2 -2 -1 -2 -2 -2 -2 -2 -2 -2 -2 -3 -3 -2 -2 -2 -2 -2 -2 -2
1 3 7 9 10 8 7 7 5 6 6 6 5 6 6 3 1 0 0 -0 -0 -0 -1 -1 -1 -1 -2 -2 -2 -2 -2 -1 -2 -2 -2 -2 -2 -2 -2 -2 -2 -2 -2 -2 -2 -2 -2 -1 -1
4 4 9 11 10 8 6 6 5 6 5 5 6 6 5 2 1 1 -0 -0 -1 -0 -1 -1 0 -0 -1 -2 -2 -2 -2 -2 -2 -2 -2 -2 -2 -2 -2 -2 -2 -2 -2 -2 -2 -1 -1 -1 -1
6 7 10 10 10 9 7 5 6 6 6 6 4 6 4 3 1 0 -0 -0 -1 -1 -1 -1 -1 -1 -0 -1 -1 -2 -2 -2 -2 -2 -2 -2 -2 -2 -2 -2 -2 -2 -2 -2 -1 -1 -1 -1 -1
4 6 10 9 10 9 6 5 5 5 6 3 3 6 6 3 1 0 0 0 -0 -0 -1 -1 -1 -1 -1 -2 0 -1 -1 -2 -2 -2 -2 -1 -1 -2 -2 -1 -2 -2 -2 -1 -1 -1 -1 -1 -1
3 8 11 10 10 8 6 6 5 4 5 5 4 4 3 2 1 1 1 1 1 0 1 -0 -1 -1 -1 -1 -0 0 0 -1 -1 -1 0 0 -2 -2 -1 -1 -2 -2 -2 -1 -1 -1 -1 -1 -0
6 9 9 7 7 7 6 6 5 6 6 5 5 3 2 2 2 3 3 3 2 1 1 0 -0 -1 -1 -1 -1 -1 -1 -2 -2 -2 -2 -2 -2 -2 -1 -0 -1 -1 -1 -2 -1 -1 -1 -1 -1
6 8 7 7 6 6 6 6 5 6 7 5 5 4 3 3 3 3 3 2 2 1 1 0 0 1 -1 -1 -1 -1 -1 -1 -2 -2 -2 -2 -1 -2 -2 -2 -1 -2 -0 -2 -2 -2 -1 -1 -1
8 6 6 6 6 6 7 5 6 5 5 4 4 3 3 3 3 3 3 2 2 1 1 0 -0 0 0 -1 -1 -1 -1 -1 -1 -1 -2 -1 -1 -1 -1 -1 -1 -2 -2 -1 -1 -1 -1 -1 -1
8 7 6 6 6 6 6 6 6 6 4 4 4 4 3 3 3 2 2 1 1 1 1 0 -0 1 1 1 -1 -1 -1 -1 -1 -1 -1 -1 -1 -1 -1 -1 -1 -1 -1 -1 -1 -1 -1 -1 -1
6 6 6 6 6 6 7 6 6 5 3 4 4 4 3 3 3 2 2 2 2 1 1 0 -0 -0 0 0 -1 -1 -1 -1 -1 -1 -1 -0 -0 -0 -0 -0 -0 -0 -1 -1 -1 -1 -1 -0 -0
6 8 7 7 6 7 6 8 8 4 4 4 4 4 3 3 2 3 2 2 1 1 0 0 -0 -1 -0 -0 -1 -1 -1 -1 -1 -1 -1 -1 -0 0 1 1 1 1 -0 -0 -1 -1 -1 -0 0
8 8 11 8 7 6 6 10 7 4 4 5 4 4 3 3 3 2 1 1 1 1 1 0 -0 -0 -0 -0 -1 -1 -1 -1 -1 -0 -1 -1 -1 -0 0 1 1 1 1 1 0 -0 -0 0 1
9 13 11 11 7 7 8 10 7 5 5 5 4 4 4 3 3 2 1 1 1 0 0 0 -0 0 -0 -0 -1 -1 -1 -1 -1 -1 0 -1 -1 -1 -0 0 0 1 1 1 1 2 2 2 1
13 13 12 11 9 8 9 9 7 6 6 5 5 4 4 4 3 2 2 2 2 1 0 0 0 0 -0 -0 -0 -0 -0 -0 -1 -1 0 -0 -1 -1 -0 -0 0 0 1 1 1 2 1 2 2
12 11 12 10 9 9 9 9 8 6 6 6 6 5 5 5 3 3 2 2 2 2 1 1 0 0 0 1 1 1 1 1 0 -1 -1 -0 -0 -1 -0 -0 -0 0 1 1 1 1 2 2 2
12 13 13 11 9 9 10 10 8 7 7 6 6 6 6 5 5 4 3 3 3 2 2 1 1 0 0 0 0 0 0 0 -0 -0 -1 -1 -1 -0 -0 -0 -0 0 1 0 1 1 2 2 1
11 13 13 13 10 9 10 12 11 8 7 7 6 6 5 6 5 5 5 4 3 3 2 2 1 0 0 0 0 0 0 0 1 0 0 -0 -1 -1 -0 0 -0 0 1 1 1 1 2 2 1
14 10 10 12 12 15 11 17 12 11 11 9 7 7 6 6 5 5 5 4 4 4 3 2 2 2 0 -0 1 1 2 2 1 1 0 -0 -0 -0 0 -0 -0 0 0 1 1 1 1 1 2
12 9 10 11 12 13 13 15 14 11 12 10 8 6 5 5 5 5 5 6 5 4 3 1 2 2 1 0 0 1 1 1 1 0 1 0 0 0 0 0 0 0 0 0 0 1 1 1 2
8 10 11 11 12 17 14 14 15 13 13 11 8 7 6 6 5 6 7 6 5 4 1 1 1 1 1 0 0 1 1 1 1 1 1 1 0 1 1 1 1 0 1 1 1 1 2 2 3
9 12 17 18 18 18 14 15 15 12 11 11 10 8 7 6 6 7 7 7 7 6 5 4 3 5 4 2 1 1 1 1 1 1 1 1 1 1 0 1 1 1 1 1 2 2 2 2 3
11 12 16 20 19 17 13 17 15 10 9 9 8 8 7 7 8 8 9 9 8 8 7 7 7 7 8 8 8 8 8 7 6 6 4 5 3 3 2 1 1 2 2 2 2 2 2 2 3
12 14 11 15 16 16 15 14 12 10 10 9 7 7 7 8 9 9 9 9 9 10 9 9 9 9 9 9 9 9 9 10 10 10 9 9 9 9 8 7 5 2 1 0 1 1 2 1 1
9 8 15 13 18 19 17 15 16 12 10 9 8 7 8 9 9 10 10 10 10 10 10 10 10 10 10 10 10 10 10 10 10 10 10 10 10 9 9 8 8 7 6 3 0 1 0 1 1
12 13 12 12 13 17 18 16 11 11 9 8 7 6 8 9 10 10 11 11 11 11 11 11 11 11 11 10 10 10 10 10 9 10 10 10 10 10 10 9 9 8 7 6 5 3 1 1 1
9 11 12 15 16 14 13 14 10 9 8 7 7 7 8 9 10 11 11 11 11 11 12 12 12 13 12 11 11 11 10 10 11 11 11 10 10 10 10 9 9 8 8 7 7 6 5 4 3